Location: Fours
(44.3167°N, 6.7000°E)
Time: 11:46:02
(UTC+00:00)

Cosmos 1455 Rocket - Pass Details

Date: 16 October 2021
Orbit: 604 x 630 km, 82.5° (Epoch: 03 December)

Event Time Altitude Azimuth Distance (km) Brightness Sun altitude
Rises 18:06:37 0° 180° (S) 2,874 6.5 -15.0°
Reaches altitude 10° 18:08:50 10° 178° (S) 1,978 5.6 -15.3°
Maximum altitude 18:13:11 67° 95° (E) 676 3.0 -16.1°
Drops below altitude 10° 18:17:36 10° 14° (NNE) 2,009 5.6 -16.9°
Sets 18:19:52 0° 12° (NNE) 2,924 6.4 -17.3°
